BREEZE-M DEB

Satellite information

Favourite Embed

Satellite Type and Status

DEBRISIN ORBIT

Key statistics

Satellite BREEZE-M DEB at a glance.

Uptime

7182

Days in orbit

Revolutions

≈ 6.6

Per day

Orbit

MEO

Medium Earth Orbit

Inclination

51.6

Latest

Satellite identification and parameters

Extended collection of information and parameters for BREEZE-M DEB.

Object identification

Identified? True

Debris? True

Object name: BREEZE-M DEB

International designator: 2006-006CE

Object number (NORAD): 34263

Object ID (CCSDS): 34263

Country: COMMONWEALTH OF INDEPENDENT STATES (CIS)

Current information (Y/N): Y

RCS size: SMALL

Orbital parameters

Period: 219.3 minutes

Inclination: 51.5703 deg

SMA: 12046.274 km

Apoapsis: 10888.187 km

Periapsis: 448.091 km

RAAN: 358.5707 deg

Eccentricy: 0.433333

Argument of periapsis: 62.7151 deg

Mean anomaly: 334.7031 deg

Mean motion: 6.56634421 rev/day

Mean motion (dot): 0.00007808 rev/day2

B* drag term: 0.0056366161 1/REarth

Two-line elements (TLE)

Creation date: Oct. 28, 2025, 2:18 a.m.

Reference frame: TEME

Reference center: EARTH

Epoch: Oct. 27, 2025, 8:36 a.m. UTC

TLE line 0: 0 BREEZE-M DEB

TLE line 1: 1 34263U 06006CE 25300.35896939 .00007808 00000-0 56366-2 0 9993

TLE line 2: 2 34263 51.5703 358.5707 4333330 62.7151 334.7031 6.56634421237917

Live tracking on map

Real-time ground track for satellite BREEZE-M DEB.

In-orbit conjunctions

A list of the most updated potential collisions computed for object BREEZE-M DEB.

Target Orbit TCA Probability of collision Miss distance Type
BREEZE-M DEB MEO 2024-06-08 10:23:53 TBA 2513.0 (m) DEBRIS

Associated space launch

The Arabsat-4 spacecraft are based on the Eurostar-2000+ version of the Eurostar satellite family. Both satellites received the names Badr-1 and Badr-4 respectively in February 2006. Badr 1 did not reach its planned orbit, when the upper stage of the Proton-M Briz-M (Ph.3) launch vehicle failed. After evaluating a lunar fly-by maneuvre to rescue the satellite, Badr 1 was deorbited on 24.03.2006 over the pacific.

BREEZE-M DEB was lifted into orbit during the mission ‘Proton-M Briz-M | Arabsat 4A’, on board a Proton-M Briz-M space rocket.

The launch took place on Feb. 28, 2006, 8:10 p.m. from 200/39 (200L).

For more information about the launch, click the button.

Launch to space Proton-M Briz-M | Arabsat 4A
Proton-M Briz-M | Arabsat 4A

Agency: N/A

Status: Launch Failure

Launch date: Feb. 28, 2006, 8:10 p.m. UTC

Rocket: Proton-M Briz-M

Launch pad: 200/39 (200L)

Location: Baikonur Cosmodrome, Republic of Kazakhstan

...

Latest news about this satellite

There are no fresh news available about this satellite. Check back as we update our databases every day.


Newsletter sign-up

Weekly statistics, charts and insights to help you stay on top of the space industry.